Back to catalog

QIANFAN-86

AliveCommunicationsPO
NORAD 63172·PAYLOAD·🇨🇳 China

Launched Mar 11, 2025 from Wenchang Space Launch Site

Loading…

Next Passes (next 24 hours)

TLE

FreshSource: Space-Track

Epoch: Sep 14, 2026, 14:07 UTC

1 63172U 25046P   26257.58856223  .00000068  00000-0  85811-4 0  9998
2 63172  88.9654 291.1516 0012824  61.0483 299.1952 13.51025276 84792

Track QIANFAN-86 in real time with AllMySat

Download on the App Store